sat.trackr.live / text

‹ back to catalog

STARLINK-11480 [DTC]

NORAD 62830 · 2025-019B

PAYLOAD ACTIVE UNKNOWN

§ Identity

Operator
Country
US
Launch date
2025-01-27
Launch site
AFETR
Launch vehicle
Mass (kg)
RCS (m²)

Purposes: comms

External: N2YO · Heavens-Above · Gunter

§ Orbital elements

Epoch: 2026-05-25T04:46:51.699936Z

Period
91.66 min
Inclination
43.0016°
Eccentricity
0.0001630
Mean motion
15.70942940 rev/d
Perigee alt
355.1 km
Apogee alt
357.3 km
Semi-major
6,734.3 km
B*
1.2574e-3
RAAN
204.8179°
Arg perigee
268.4406°
Mean anomaly
91.6274°
Rev number
7,591

§ Raw data

STARLINK-11480 [DTC]1 62830U 25019B   26145.19920949  .00164844  00000+0  12574-2 0  99942 62830  43.0016 204.8179 0001630 268.4406  91.6274 15.70942940 75918

JSON: /api/v1/satellites/62830 · /tle

For live sub-satellite position, see the globe view (requires WebGL).

§ Visibility from observer

Set your observer location to see the next 7 days of passes ≥ 10°. The values pass through the URL so the page stays shareable.

No JS? Fill the form by hand. The geolocation button needs JavaScript.